| time (UTC) | temp F | wind direction | speed MPH | gust MPH | rain 1hr in | rain 24hr in | rain mn in | humidity % | barometer mb |
| 20260507115911 | 56 | 136 | 3.0 | 5.0 | 0.00 | 0.02 | 0.02 | 98 | 1012.6 |
| 20260507115407 | 56 | 136 | 1.0 | 3.0 | 0.00 | 0.02 | 0.02 | 98 | 1012.6 |
| 20260507114903 | 56 | 136 | 0.0 | 1.0 | 0.00 | 0.02 | 0.02 | 98 | 1012.3 |
| 20260507114400 | 56 | 216 | 0.0 | 0.0 | 0.00 | 0.02 | 0.02 | 98 | 1012.3 |
| 20260507113857 | 56 | 216 | 0.0 | 0.0 | 0.00 | 0.02 | 0.02 | 98 | 1012.3 |
| 20260507113355 | 57 | 216 | 0.0 | 2.0 | 0.00 | 0.02 | 0.02 | 98 | 1012.3 |
| 20260507112852 | 57 | 136 | 3.0 | 4.0 | 0.00 | 0.02 | 0.02 | 98 | 1012.3 |
| 20260507112349 | 57 | 136 | 1.0 | 4.0 | 0.00 | 0.02 | 0.02 | 98 | 1012.0 |
| 20260507111847 | 57 | 136 | 1.0 | 3.0 | 0.00 | 0.02 | 0.02 | 98 | 1012.0 |
| 20260507111343 | 58 | 131 | 4.0 | 6.0 | 0.00 | 0.02 | 0.02 | 98 | 1012.0 |
| 20260507110839 | 58 | 135 | 3.0 | 4.0 | 0.00 | 0.02 | 0.02 | 98 | 1012.0 |
| 20260507110335 | 59 | 131 | 3.0 | 5.0 | 0.00 | 0.02 | 0.02 | 98 | 1012.0 |
| 20260507105833 | 59 | 139 | 1.0 | 2.0 | 0.00 | 0.02 | 0.02 | 98 | 1011.6 |
| 20260507105329 | 59 | 139 | 3.0 | 5.0 | 0.00 | 0.02 | 0.02 | 98 | 1011.6 |
| 20260507104826 | 60 | 40 | 3.0 | 8.0 | 0.00 | 0.02 | 0.02 | 99 | 1011.6 |
| 20260507104322 | 59 | 327 | 0.0 | 0.0 | 0.00 | 0.02 | 0.02 | 99 | 1011.3 |
| 20260507103818 | 59 | 327 | 0.0 | 0.0 | 0.00 | 0.02 | 0.02 | 99 | 1011.3 |
| 20260507103315 | 59 | 327 | 0.0 | 0.0 | 0.00 | 0.02 | 0.02 | 99 | 1011.3 |
| 20260507102812 | 59 | 327 | 0.0 | 0.0 | 0.00 | 0.02 | 0.02 | 99 | 1011.3 |
| 20260507102309 | 59 | 327 | 0.0 | 0.0 | 0.00 | 0.02 | 0.02 | 99 | 1011.3 |
| 20260507101805 | 59 | 327 | 0.0 | 0.0 | 0.00 | 0.02 | 0.02 | 99 | 1011.3 |
| 20260507101304 | 59 | 327 | 0.0 | 0.0 | 0.00 | 0.02 | 0.02 | 99 | 1011.3 |
| 20260507100802 | 59 | 327 | 0.0 | 0.0 | 0.00 | 0.02 | 0.02 | 98 | 1011.6 |
| 20260507100300 | 59 | 327 | 1.0 | 3.0 | 0.00 | 0.02 | 0.02 | 98 | 1011.3 |
| 20260507095758 | 59 | 327 | 0.0 | 0.0 | 0.00 | 0.02 | 0.02 | 98 | 1011.3 |
| 20260507095254 | 60 | 327 | 0.0 | 0.0 | 0.00 | 0.02 | 0.02 | 98 | 1011.3 |
| 20260507094751 | 59 | 327 | 0.0 | 0.0 | 0.00 | 0.02 | 0.02 | 98 | 1011.3 |
| 20260507094248 | 59 | 327 | 0.0 | 0.0 | 0.00 | 0.02 | 0.02 | 98 | 1011.3 |
| 20260507093745 | 59 | 327 | 0.0 | 0.0 | 0.00 | 0.02 | 0.02 | 99 | 1011.3 |
| 20260507093243 | 59 | 327 | 0.0 | 1.0 | 0.00 | 0.02 | 0.02 | 98 | 1010.9 |
| 20260507092741 | 59 | 225 | 0.0 | 1.0 | 0.00 | 0.02 | 0.02 | 98 | 1010.5 |
| 20260507092236 | 60 | 219 | 0.0 | 0.0 | 0.00 | 0.02 | 0.02 | 98 | 1010.5 |
| 20260507091733 | 59 | 219 | 0.0 | 0.0 | 0.00 | 0.02 | 0.02 | 98 | 1010.9 |
| 20260507091230 | 59 | 219 | 0.0 | 0.0 | 0.00 | 0.02 | 0.02 | 98 | 1011.3 |
| 20260507090726 | 59 | 219 | 0.0 | 0.0 | 0.00 | 0.02 | 0.02 | 99 | 1011.3 |
| 20260507090222 | 59 | 219 | 0.0 | 0.0 | 0.00 | 0.02 | 0.02 | 98 | 1011.6 |
| 20260507085719 | 60 | 219 | 1.0 | 2.0 | 0.00 | 0.02 | 0.02 | 99 | 1011.3 |
| 20260507085216 | 60 | 219 | 0.0 | 0.0 | 0.00 | 0.02 | 0.02 | 98 | 1011.3 |
| 20260507084713 | 60 | 219 | 0.0 | 0.0 | 0.00 | 0.02 | 0.02 | 99 | 1011.3 |
| 20260507084209 | 60 | 219 | 0.0 | 0.0 | 0.00 | 0.02 | 0.02 | 99 | 1011.3 |
| 20260507083707 | 60 | 219 | 0.0 | 0.0 | 0.00 | 0.02 | 0.02 | 99 | 1010.9 |
| 20260507083203 | 60 | 219 | 0.0 | 0.0 | 0.00 | 0.02 | 0.02 | 99 | 1010.9 |
| 20260507082659 | 60 | 219 | 0.0 | 0.0 | 0.00 | 0.02 | 0.02 | 99 | 1010.9 |
| 20260507082155 | 61 | 219 | 0.0 | 0.0 | 0.00 | 0.02 | 0.02 | 99 | 1010.9 |
| 20260507081652 | 61 | 323 | 0.0 | 0.0 | 0.00 | 0.02 | 0.02 | 99 | 1011.3 |
| 20260507081148 | 61 | 323 | 0.0 | 0.0 | 0.00 | 0.02 | 0.02 | 99 | 1011.3 |
| 20260507080645 | 61 | 323 | 0.0 | 0.0 | 0.00 | 0.02 | 0.02 | 99 | 1011.3 |
| 20260507080142 | 61 | 56 | 1.0 | 4.0 | 0.00 | 0.02 | 0.02 | 99 | 1011.3 |
| 20260507075642 | 61 | 33 | 0.0 | 0.0 | 0.00 | 0.02 | 0.02 | 99 | 1011.3 |
| 20260507075139 | 61 | 33 | 0.0 | 0.0 | 0.00 | 0.02 | 0.02 | 99 | 1010.9 |
| 20260507074636 | 61 | 87 | 0.0 | 0.0 | 0.00 | 0.02 | 0.02 | 99 | 1010.9 |
| 20260507074134 | 61 | 104 | 0.0 | 0.0 | 0.00 | 0.02 | 0.02 | 99 | 1010.9 |
| 20260507073630 | 61 | 104 | 0.0 | 0.0 | 0.00 | 0.02 | 0.02 | 99 | 1010.9 |
| 20260507073126 | 62 | 104 | 0.0 | 0.0 | 0.00 | 0.02 | 0.02 | 99 | 1010.5 |
| 20260507072624 | 61 | 104 | 0.0 | 0.0 | 0.00 | 0.02 | 0.02 | 99 | 1010.9 |
| 20260507072121 | 61 | 104 | 0.0 | 0.0 | 0.00 | 0.02 | 0.02 | 99 | 1010.9 |
| 20260507071619 | 62 | 104 | 0.0 | 0.0 | 0.00 | 0.02 | 0.02 | 99 | 1010.9 |
| 20260507071115 | 61 | 104 | 2.0 | 3.0 | 0.00 | 0.02 | 0.02 | 99 | 1010.9 |
| 20260507070612 | 62 | 104 | 0.0 | 0.0 | 0.00 | 0.02 | 0.02 | 99 | 1010.9 |
| 20260507070109 | 62 | 104 | 0.0 | 0.0 | 0.00 | 0.02 | 0.02 | 99 | 1010.9 |
| 20260507065605 | 62 | 104 | 0.0 | 0.0 | 0.00 | 0.02 | 0.02 | 99 | 1010.5 |
| 20260507065103 | 62 | 104 | 0.0 | 0.0 | 0.00 | 0.02 | 0.02 | 99 | 1010.5 |
| 20260507064600 | 62 | 104 | 0.0 | 0.0 | 0.00 | 0.02 | 0.02 | 99 | 1010.5 |
| 20260507064059 | 62 | 104 | 0.0 | 0.0 | 0.00 | 0.02 | 0.02 | 99 | 1010.5 |
| 20260507063555 | 62 | 104 | 0.0 | 0.0 | 0.00 | 0.02 | 0.02 | 98 | 1010.2 |
| 20260507063053 | 62 | 104 | 0.0 | 0.0 | 0.00 | 0.02 | 0.02 | 98 | 1010.2 |
| 20260507062549 | 62 | 104 | 0.0 | 0.0 | 0.00 | 0.02 | 0.02 | 98 | 1010.5 |
| 20260507062047 | 62 | 104 | 0.0 | 0.0 | 0.00 | 0.02 | 0.02 | 98 | 1010.5 |
| 20260507061544 | 62 | 104 | 0.0 | 0.0 | 0.00 | 0.02 | 0.02 | 98 | 1010.9 |
| 20260507061042 | 62 | 104 | 0.0 | 0.0 | 0.00 | 0.02 | 0.02 | 98 | 1010.9 |
| 20260507060540 | 63 | 104 | 0.0 | 0.0 | 0.00 | 0.02 | 0.02 | 98 | 1010.9 |
| 20260507060037 | 63 | 113 | 2.0 | 4.0 | 0.00 | 0.02 | 0.02 | 98 | 1010.9 |
| 20260507055531 | 62 | 128 | 0.0 | 2.0 | 0.00 | 0.02 | 0.02 | 99 | 1011.3 |
| 20260507055028 | 62 | 128 | 0.0 | 0.0 | 0.00 | 0.02 | 0.02 | 99 | 1011.3 |
| 20260507054524 | 62 | 128 | 0.0 | 0.0 | 0.00 | 0.02 | 0.02 | 99 | 1011.3 |
| 20260507054021 | 62 | 128 | 0.0 | 0.0 | 0.00 | 0.02 | 0.02 | 99 | 1010.9 |
| 20260507053519 | 62 | 128 | 0.0 | 0.0 | 0.00 | 0.02 | 0.02 | 99 | 1011.3 |
| 20260507053018 | 62 | 128 | 0.0 | 0.0 | 0.00 | 0.02 | 0.02 | 99 | 1010.9 |
| 20260507052515 | 62 | 128 | 0.0 | 0.0 | 0.00 | 0.02 | 0.02 | 99 | 1010.9 |
| 20260507052011 | 62 | 128 | 0.0 | 0.0 | 0.00 | 0.02 | 0.02 | 99 | 1010.5 |
| 20260507051509 | 62 | 128 | 0.0 | 0.0 | 0.00 | 0.02 | 0.02 | 99 | 1010.2 |
| 20260507051006 | 62 | 128 | 0.0 | 0.0 | 0.00 | 0.02 | 0.02 | 99 | 1009.8 |
| 20260507050502 | 62 | 128 | 0.0 | 0.0 | 0.00 | 0.02 | 0.02 | 99 | 1010.2 |
| 20260507045959 | 62 | 128 | 0.0 | 0.0 | 0.00 | 0.02 | 0.02 | 98 | 1010.2 |
| 20260507045455 | 62 | 128 | 0.0 | 0.0 | 0.00 | 0.02 | 0.02 | 98 | 1010.5 |
| 20260507044953 | 62 | 128 | 0.0 | 0.0 | 0.00 | 0.01 | 0.01 | 98 | 1010.5 |
| 20260507044450 | 63 | 128 | 0.0 | 0.0 | 0.00 | 0.01 | 0.01 | 98 | 1010.5 |
| 20260507043946 | 63 | 128 | 0.0 | 0.0 | 0.00 | 0.01 | 0.01 | 98 | 1010.5 |
| 20260507043442 | 63 | 128 | 0.0 | 2.0 | 0.00 | 0.01 | 0.01 | 98 | 1010.5 |
| 20260507042939 | 63 | 128 | 0.0 | 2.0 | 0.00 | 0.01 | 0.01 | 98 | 1010.5 |
| 20260507042436 | 63 | 128 | 0.0 | 1.0 | 0.00 | 0.01 | 0.01 | 98 | 1010.9 |
| 20260507041931 | 63 | 128 | 0.0 | 1.0 | 0.00 | 0.01 | 0.01 | 97 | 1010.9 |
| 20260507041428 | 63 | 128 | 0.0 | 0.0 | 0.00 | 0.01 | 0.01 | 97 | 1011.3 |
| 20260507040926 | 63 | 128 | 0.0 | 0.0 | 0.00 | 0.01 | 0.01 | 97 | 1011.3 |
| 20260507040421 | 64 | 128 | 0.0 | 0.0 | 0.00 | 0.01 | 0.01 | 96 | 1011.3 |
| 20260507035917 | 64 | 128 | 0.0 | 2.0 | 0.00 | 0.14 | 0.14 | 96 | 1011.3 |
| 20260507035414 | 63 | 128 | 1.0 | 3.0 | 0.00 | 0.14 | 0.14 | 96 | 1011.6 |
| 20260507034911 | 63 | 128 | 1.0 | 2.0 | 0.00 | 0.14 | 0.14 | 96 | 1011.6 |
| 20260507034407 | 63 | 221 | 0.0 | 0.0 | 0.00 | 0.14 | 0.14 | 96 | 1011.6 |
| 20260507033905 | 63 | 221 | 0.0 | 0.0 | 0.00 | 0.14 | 0.14 | 96 | 1011.6 |
| 20260507033403 | 63 | 225 | 0.0 | 0.0 | 0.00 | 0.14 | 0.14 | 96 | 1011.6 |
| 20260507032900 | 63 | 225 | 0.0 | 0.0 | 0.00 | 0.14 | 0.14 | 96 | 1011.6 |
| 20260507032357 | 63 | 247 | 0.0 | 0.0 | 0.00 | 0.13 | 0.13 | 95 | 1011.6 |
| 20260507031853 | 63 | 247 | 0.0 | 0.0 | 0.00 | 0.13 | 0.13 | 95 | 1012.0 |
| 20260507031350 | 63 | 247 | 0.0 | 0.0 | 0.00 | 0.13 | 0.13 | 94 | 1012.0 |
| 20260507030846 | 64 | 247 | 0.0 | 0.0 | 0.00 | 0.13 | 0.13 | 94 | 1012.0 |
| 20260507030344 | 64 | 247 | 0.0 | 0.0 | 0.00 | 0.13 | 0.13 | 94 | 1012.0 |
| 20260507025840 | 64 | 247 | 0.0 | 0.0 | 0.00 | 0.13 | 0.13 | 94 | 1011.6 |
| 20260507025338 | 64 | 247 | 0.0 | 0.0 | 0.00 | 0.13 | 0.13 | 94 | 1011.6 |
| 20260507024836 | 64 | 247 | 0.0 | 0.0 | 0.00 | 0.13 | 0.13 | 94 | 1011.6 |
| 20260507024333 | 63 | 247 | 0.0 | 0.0 | 0.00 | 0.13 | 0.13 | 95 | 1011.6 |
| 20260507023828 | 63 | 247 | 0.0 | 0.0 | 0.00 | 0.13 | 0.13 | 95 | 1011.6 |
| 20260507023325 | 63 | 247 | 0.0 | 0.0 | 0.00 | 0.13 | 0.13 | 94 | 1011.6 |
| 20260507022823 | 63 | 247 | 0.0 | 0.0 | 0.00 | 0.13 | 0.13 | 95 | 1011.6 |
| 20260507022319 | 63 | 247 | 0.0 | 0.0 | 0.00 | 0.13 | 0.13 | 96 | 1011.6 |
| 20260507021815 | 62 | 247 | 0.0 | 0.0 | 0.00 | 0.13 | 0.13 | 96 | 1011.6 |
| 20260507021311 | 63 | 247 | 0.0 | 0.0 | 0.00 | 0.13 | 0.13 | 96 | 1011.3 |
| 20260507020809 | 63 | 247 | 0.0 | 0.0 | 0.00 | 0.13 | 0.13 | 96 | 1011.3 |
| 20260507020305 | 62 | 247 | 0.0 | 0.0 | 0.00 | 0.13 | 0.13 | 96 | 1010.9 |
| 20260507015802 | 63 | 233 | 0.0 | 0.0 | 0.00 | 0.13 | 0.13 | 96 | 1010.5 |
| 20260507015300 | 62 | 233 | 0.0 | 0.0 | 0.00 | 0.13 | 0.13 | 96 | 1010.9 |
| 20260507014757 | 62 | 233 | 0.0 | 0.0 | 0.00 | 0.13 | 0.13 | 96 | 1010.9 |
| 20260507014253 | 62 | 233 | 0.0 | 0.0 | 0.00 | 0.13 | 0.13 | 95 | 1010.9 |
| 20260507013749 | 63 | 233 | 0.0 | 0.0 | 0.00 | 0.13 | 0.13 | 95 | 1010.9 |
| 20260507013247 | 63 | 233 | 0.0 | 0.0 | 0.00 | 0.13 | 0.13 | 95 | 1010.9 |
| 20260507012744 | 63 | 233 | 0.0 | 0.0 | 0.00 | 0.13 | 0.13 | 95 | 1011.3 |
| 20260507012244 | 63 | 233 | 0.0 | 0.0 | 0.00 | 0.13 | 0.13 | 95 | 1011.3 |
| 20260507011742 | 63 | 233 | 0.0 | 0.0 | 0.00 | 0.13 | 0.13 | 95 | 1011.3 |
| 20260507011239 | 63 | 233 | 0.0 | 1.0 | 0.00 | 0.13 | 0.13 | 95 | 1011.3 |
| 20260507010738 | 63 | 233 | 0.0 | 0.0 | 0.00 | 0.13 | 0.13 | 95 | 1011.3 |
| 20260507010234 | 63 | 233 | 0.0 | 0.0 | 0.00 | 0.13 | 0.13 | 95 | 1011.3 |
| 20260507005732 | 63 | 233 | 0.0 | 0.0 | 0.00 | 0.13 | 0.13 | 94 | 1011.3 |
| 20260507005228 | 63 | 233 | 0.0 | 2.0 | 0.00 | 0.13 | 0.13 | 93 | 1011.3 |
| 20260507004724 | 63 | 233 | 0.0 | 0.0 | 0.00 | 0.13 | 0.13 | 93 | 1011.3 |
| 20260507004223 | 64 | 233 | 0.0 | 0.0 | 0.00 | 0.13 | 0.13 | 91 | 1011.3 |
| 20260507003718 | 64 | 233 | 0.0 | 0.0 | 0.00 | 0.13 | 0.13 | 90 | 1011.3 |
| 20260507003214 | 65 | 233 | 0.0 | 0.0 | 0.00 | 0.13 | 0.13 | 89 | 1010.9 |
| 20260507002711 | 65 | 233 | 0.0 | 0.0 | 0.00 | 0.13 | 0.13 | 89 | 1010.9 |
| 20260507002207 | 65 | 233 | 0.0 | 0.0 | 0.00 | 0.13 | 0.13 | 89 | 1010.9 |
| 20260507001704 | 65 | 233 | 0.0 | 0.0 | 0.00 | 0.13 | 0.13 | 89 | 1010.9 |
| 20260507001201 | 66 | 233 | 0.0 | 0.0 | 0.00 | 0.13 | 0.13 | 88 | 1010.9 |
| 20260507000657 | 65 | 233 | 0.0 | 0.0 | 0.00 | 0.13 | 0.13 | 88 | 1010.9 |
| 20260507000153 | 66 | 233 | 0.0 | 0.0 | 0.00 | 0.13 | 0.13 | 88 | 1010.9 |
| 20260506235650 | 66 | 233 | 0.0 | 2.0 | 0.00 | 0.13 | 0.13 | 87 | 1011.3 |
| 20260506235145 | 66 | 233 | 2.0 | 3.0 | 0.00 | 0.13 | 0.13 | 86 | 1010.9 |
| 20260506234643 | 67 | 233 | 1.0 | 2.0 | 0.00 | 0.13 | 0.13 | 85 | 1010.9 |
| 20260506234140 | 67 | 233 | 2.0 | 3.0 | 0.00 | 0.13 | 0.13 | 84 | 1010.9 |
| 20260506233637 | 67 | 233 | 4.0 | 5.0 | 0.00 | 0.13 | 0.13 | 83 | 1010.9 |
| 20260506233134 | 68 | 232 | 5.0 | 6.0 | 0.00 | 0.13 | 0.13 | 83 | 1010.9 |
| 20260506232630 | 68 | 241 | 4.0 | 6.0 | 0.00 | 0.13 | 0.13 | 81 | 1010.5 |
| 20260506232125 | 68 | 225 | 2.0 | 5.0 | 0.00 | 0.13 | 0.13 | 82 | 1010.9 |
| 20260506231623 | 68 | 227 | 2.0 | 2.0 | 0.00 | 0.13 | 0.13 | 82 | 1010.9 |
| 20260506231121 | 68 | 227 | 0.0 | 0.0 | 0.00 | 0.13 | 0.13 | 82 | 1010.9 |
| 20260506230618 | 68 | 227 | 0.0 | 2.0 | 0.00 | 0.13 | 0.13 | 82 | 1010.9 |
| 20260506230115 | 68 | 169 | 0.0 | 2.0 | 0.00 | 0.13 | 0.13 | 82 | 1010.9 |
| 20260506225611 | 68 | 206 | 2.0 | 3.0 | 0.00 | 0.13 | 0.13 | 82 | 1010.9 |
| 20260506225108 | 68 | 172 | 2.0 | 3.0 | 0.00 | 0.13 | 0.13 | 82 | 1010.9 |
| 20260506224604 | 68 | 167 | 3.0 | 5.0 | 0.00 | 0.13 | 0.13 | 83 | 1010.9 |
| 20260506224101 | 68 | 150 | 2.0 | 4.0 | 0.00 | 0.13 | 0.13 | 83 | 1010.9 |
| 20260506223557 | 68 | 182 | 3.0 | 6.0 | 0.00 | 0.13 | 0.13 | 81 | 1010.5 |
| 20260506223053 | 69 | 171 | 4.0 | 8.0 | 0.00 | 0.13 | 0.13 | 81 | 1010.5 |
| 20260506222550 | 69 | 176 | 4.0 | 6.0 | 0.00 | 0.13 | 0.13 | 81 | 1010.2 |
| 20260506222047 | 69 | 193 | 5.0 | 8.0 | 0.00 | 0.13 | 0.13 | 80 | 1010.2 |
| 20260506221544 | 69 | 183 | 5.0 | 8.0 | 0.00 | 0.13 | 0.13 | 80 | 1010.2 |
| 20260506221042 | 69 | 216 | 4.0 | 6.0 | 0.00 | 0.13 | 0.13 | 80 | 1010.2 |
| 20260506220538 | 70 | 177 | 4.0 | 7.0 | 0.00 | 0.13 | 0.13 | 79 | 1010.2 |
| 20260506220034 | 71 | 182 | 4.0 | 6.0 | 0.00 | 0.13 | 0.13 | 78 | 1010.2 |
| 20260506215531 | 70 | 226 | 5.0 | 9.0 | 0.00 | 0.13 | 0.13 | 79 | 1010.2 |
| 20260506215026 | 69 | 159 | 2.0 | 5.0 | 0.00 | 0.13 | 0.13 | 79 | 1009.8 |
| 20260506214524 | 69 | 168 | 4.0 | 8.0 | 0.00 | 0.13 | 0.13 | 80 | 1010.2 |
| 20260506214021 | 69 | 185 | 4.0 | 6.0 | 0.00 | 0.13 | 0.13 | 80 | 1010.2 |
| 20260506213519 | 69 | 219 | 2.0 | 6.0 | 0.00 | 0.13 | 0.13 | 81 | 1010.2 |
| 20260506213016 | 69 | 172 | 3.0 | 6.0 | 0.00 | 0.13 | 0.13 | 81 | 1010.2 |
| 20260506212512 | 68 | 183 | 3.0 | 6.0 | 0.00 | 0.13 | 0.13 | 82 | 1010.2 |
| 20260506212007 | 68 | 206 | 3.0 | 4.0 | 0.00 | 0.13 | 0.13 | 83 | 1010.2 |
| 20260506211503 | 68 | 174 | 4.0 | 6.0 | 0.00 | 0.13 | 0.13 | 82 | 1010.2 |
| 20260506211001 | 68 | 185 | 6.0 | 9.0 | 0.00 | 0.13 | 0.13 | 82 | 1010.2 |
| 20260506210456 | 68 | 191 | 3.0 | 6.0 | 0.00 | 0.13 | 0.13 | 81 | 1009.8 |
| 20260506205953 | 69 | 187 | 2.0 | 5.0 | 0.00 | 0.13 | 0.13 | 81 | 1009.8 |
| 20260506205449 | 68 | 175 | 4.0 | 6.0 | 0.00 | 0.13 | 0.13 | 81 | 1010.2 |
| 20260506204945 | 69 | 183 | 3.0 | 5.0 | 0.00 | 0.13 | 0.13 | 80 | 1009.8 |
| 20260506204443 | 69 | 198 | 4.0 | 7.0 | 0.00 | 0.13 | 0.13 | 80 | 1009.8 |
| 20260506203941 | 69 | 183 | 3.0 | 5.0 | 0.00 | 0.13 | 0.13 | 80 | 1009.8 |
| 20260506203438 | 69 | 191 | 3.0 | 4.0 | 0.00 | 0.13 | 0.13 | 79 | 1010.2 |
| 20260506202935 | 69 | 177 | 4.0 | 5.0 | 0.00 | 0.13 | 0.13 | 79 | 1010.2 |
| 20260506202432 | 70 | 140 | 4.0 | 7.0 | 0.00 | 0.13 | 0.13 | 78 | 1010.2 |
| 20260506201928 | 70 | 130 | 5.0 | 7.0 | 0.00 | 0.13 | 0.13 | 78 | 1010.2 |
| 20260506201426 | 69 | 213 | 3.0 | 6.0 | 0.00 | 0.13 | 0.13 | 78 | 1009.8 |
| 20260506200922 | 69 | 191 | 5.0 | 7.0 | 0.00 | 0.13 | 0.13 | 79 | 1010.2 |
| 20260506200418 | 69 | 193 | 2.0 | 5.0 | 0.00 | 0.13 | 0.13 | 79 | 1010.2 |
| 20260506195915 | 69 | 194 | 4.0 | 9.0 | 0.00 | 0.13 | 0.13 | 79 | 1010.2 |
| 20260506195412 | 68 | 191 | 4.0 | 8.0 | 0.00 | 0.13 | 0.13 | 80 | 1009.8 |
| 20260506194909 | 68 | 217 | 6.0 | 12.0 | 0.00 | 0.13 | 0.13 | 80 | 1009.8 |
| 20260506194406 | 68 | 222 | 7.0 | 12.0 | 0.00 | 0.13 | 0.13 | 81 | 1009.8 |
| 20260506193903 | 68 | 222 | 8.0 | 13.0 | 0.00 | 0.13 | 0.13 | 81 | 1010.2 |
| 20260506193400 | 68 | 203 | 7.0 | 12.0 | 0.00 | 0.13 | 0.13 | 80 | 1010.2 |
| 20260506192856 | 68 | 225 | 6.0 | 11.0 | 0.00 | 0.13 | 0.13 | 80 | 1009.8 |
| 20260506192353 | 68 | 234 | 7.0 | 11.0 | 0.00 | 0.13 | 0.13 | 82 | 1010.2 |
| 20260506191850 | 67 | 232 | 7.0 | 10.0 | 0.00 | 0.13 | 0.13 | 83 | 1010.5 |
| 20260506191346 | 66 | 231 | 8.0 | 10.0 | 0.00 | 0.13 | 0.13 | 84 | 1010.5 |
| 20260506190843 | 66 | 225 | 6.0 | 9.0 | 0.00 | 0.13 | 0.13 | 84 | 1010.5 |
| 20260506190339 | 66 | 203 | 5.0 | 7.0 | 0.00 | 0.13 | 0.13 | 84 | 1010.5 |
| 20260506185837 | 66 | 227 | 9.0 | 15.0 | 0.00 | 0.13 | 0.13 | 84 | 1010.9 |
| 20260506185334 | 65 | 224 | 7.0 | 10.0 | 0.00 | 0.13 | 0.13 | 84 | 1010.9 |
| 20260506184831 | 66 | 221 | 7.0 | 10.0 | 0.00 | 0.13 | 0.13 | 85 | 1010.9 |
| 20260506184328 | 66 | 180 | 5.0 | 9.0 | 0.00 | 0.13 | 0.13 | 85 | 1010.9 |
| 20260506183825 | 66 | 243 | 5.0 | 9.0 | 0.00 | 0.13 | 0.13 | 84 | 1010.9 |
| 20260506183320 | 66 | 195 | 5.0 | 11.0 | 0.00 | 0.13 | 0.13 | 84 | 1010.9 |
| 20260506182818 | 66 | 248 | 6.0 | 8.0 | 0.00 | 0.13 | 0.13 | 85 | 1010.9 |
| 20260506182315 | 66 | 206 | 5.0 | 9.0 | 0.00 | 0.13 | 0.13 | 83 | 1010.9 |
| 20260506181813 | 66 | 208 | 3.0 | 7.0 | 0.00 | 0.13 | 0.13 | 84 | 1010.9 |
| 20260506181310 | 66 | 198 | 5.0 | 8.0 | 0.00 | 0.13 | 0.13 | 84 | 1010.9 |
| 20260506180807 | 66 | 185 | 7.0 | 13.0 | 0.00 | 0.13 | 0.13 | 84 | 1011.3 |
| 20260506180303 | 66 | 220 | 4.0 | 6.0 | 0.00 | 0.13 | 0.13 | 84 | 1011.6 |
| 20260506175759 | 66 | 182 | 4.0 | 6.0 | 0.00 | 0.13 | 0.13 | 84 | 1011.6 |
| 20260506175256 | 66 | 213 | 4.0 | 6.0 | 0.00 | 0.13 | 0.13 | 85 | 1011.6 |
| 20260506174754 | 66 | 210 | 5.0 | 10.0 | 0.00 | 0.13 | 0.13 | 85 | 1011.3 |
| 20260506174251 | 66 | 221 | 0.0 | 2.0 | 0.00 | 0.13 | 0.13 | 87 | 1011.3 |
| 20260506173749 | 65 | 224 | 0.0 | 2.0 | 0.00 | 0.13 | 0.13 | 86 | 1011.6 |
| 20260506173245 | 65 | 219 | 2.0 | 4.0 | 0.00 | 0.13 | 0.13 | 86 | 1011.6 |
| 20260506172742 | 65 | 231 | 1.0 | 3.0 | 0.00 | 0.13 | 0.13 | 86 | 1011.6 |
| 20260506172238 | 65 | 228 | 7.0 | 11.0 | 0.00 | 0.13 | 0.13 | 85 | 1011.3 |
| 20260506171736 | 65 | 225 | 6.0 | 13.0 | 0.00 | 0.13 | 0.13 | 85 | 1011.3 |
| 20260506171233 | 65 | 227 | 9.0 | 13.0 | 0.00 | 0.13 | 0.13 | 85 | 1011.6 |
| 20260506170731 | 65 | 193 | 8.0 | 13.0 | 0.00 | 0.13 | 0.13 | 84 | 1011.6 |
| 20260506170227 | 66 | 222 | 10.0 | 19.0 | 0.00 | 0.13 | 0.13 | 85 | 1012.0 |
| 20260506165726 | 65 | 219 | 6.0 | 10.0 | 0.00 | 0.13 | 0.13 | 85 | 1012.0 |
| 20260506165222 | 65 | 199 | 6.0 | 9.0 | 0.00 | 0.13 | 0.13 | 85 | 1012.0 |
| 20260506164720 | 66 | 191 | 5.0 | 7.0 | 0.00 | 0.13 | 0.13 | 84 | 1012.0 |
| 20260506164217 | 67 | 202 | 3.0 | 7.0 | 0.00 | 0.13 | 0.13 | 84 | 1012.0 |
| 20260506163713 | 66 | 162 | 3.0 | 5.0 | 0.00 | 0.13 | 0.13 | 85 | 1011.6 |
| 20260506163208 | 66 | 194 | 5.0 | 9.0 | 0.00 | 0.13 | 0.13 | 84 | 1011.3 |
| 20260506162704 | 66 | 183 | 3.0 | 7.0 | 0.00 | 0.13 | 0.13 | 84 | 1011.6 |
| 20260506162202 | 64 | 171 | 4.0 | 7.0 | 0.00 | 0.13 | 0.13 | 87 | 1012.0 |
| 20260506161659 | 64 | 217 | 6.0 | 11.0 | 0.00 | 0.13 | 0.13 | 88 | 1012.0 |
| 20260506161155 | 63 | 213 | 5.0 | 9.0 | 0.00 | 0.12 | 0.12 | 89 | 1012.0 |
| 20260506153137 | 63 | 193 | 5.0 | 11.0 | 0.00 | 0.12 | 0.12 | 90 | 1012.0 |
| 20260506152634 | 63 | 193 | 5.0 | 11.0 | 0.00 | 0.12 | 0.12 | 90 | 1012.0 |
| 20260506152132 | 64 | 227 | 7.0 | 12.0 | 0.00 | 0.12 | 0.12 | 90 | 1012.0 |
| 20260506151631 | 64 | 194 | 4.0 | 6.0 | 0.00 | 0.12 | 0.12 | 91 | 1012.0 |
| 20260506151127 | 64 | 226 | 5.0 | 8.0 | 0.00 | 0.12 | 0.12 | 91 | 1012.0 |
| 20260506150624 | 63 | 201 | 3.0 | 6.0 | 0.00 | 0.12 | 0.12 | 92 | 1012.0 |
| 20260506150121 | 62 | 221 | 7.0 | 9.0 | 0.00 | 0.12 | 0.12 | 92 | 1012.3 |
| 20260506145618 | 62 | 141 | 2.0 | 9.0 | 0.00 | 0.12 | 0.12 | 93 | 1012.0 |
| 20260506145114 | 62 | 126 | 1.0 | 3.0 | 0.00 | 0.12 | 0.12 | 92 | 1012.0 |
| 20260506144612 | 62 | 153 | 0.0 | 3.0 | 0.00 | 0.12 | 0.12 | 92 | 1012.0 |
| 20260506144108 | 62 | 212 | 2.0 | 5.0 | 0.00 | 0.12 | 0.12 | 93 | 1012.3 |
| 20260506143606 | 62 | 172 | 0.0 | 2.0 | 0.00 | 0.12 | 0.12 | 94 | 1012.3 |
| 20260506143104 | 61 | 182 | 3.0 | 5.0 | 0.00 | 0.12 | 0.12 | 94 | 1012.3 |
| 20260506142602 | 61 | 179 | 3.0 | 4.0 | 0.00 | 0.12 | 0.12 | 94 | 1012.3 |
| 20260506142100 | 61 | 179 | 0.0 | 0.0 | 0.00 | 0.12 | 0.12 | 93 | 1012.3 |
| 20260506141557 | 61 | 184 | 2.0 | 5.0 | 0.00 | 0.12 | 0.12 | 93 | 1012.3 |
| 20260506141056 | 61 | 132 | 1.0 | 2.0 | 0.00 | 0.12 | 0.12 | 94 | 1012.3 |
| 20260506140553 | 61 | 143 | 1.0 | 4.0 | 0.00 | 0.12 | 0.12 | 94 | 1012.3 |
| 20260506140050 | 61 | 149 | 1.0 | 5.0 | 0.00 | 0.12 | 0.12 | 95 | 1012.6 |
| 20260506135547 | 61 | 182 | 2.0 | 5.0 | 0.00 | 0.12 | 0.12 | 95 | 1012.6 |
| 20260506135043 | 60 | 157 | 1.0 | 4.0 | 0.00 | 0.12 | 0.12 | 94 | 1012.6 |
| 20260506134539 | 60 | 157 | 0.0 | 0.0 | 0.00 | 0.12 | 0.12 | 95 | 1012.6 |
| 20260506134035 | 60 | 157 | 1.0 | 2.0 | 0.00 | 0.12 | 0.12 | 95 | 1012.6 |
| 20260506133533 | 60 | 157 | 0.0 | 2.0 | 0.00 | 0.12 | 0.12 | 95 | 1012.6 |
| 20260506133030 | 60 | 157 | 1.0 | 2.0 | 0.00 | 0.12 | 0.12 | 95 | 1012.6 |
| 20260506132527 | 60 | 157 | 1.0 | 3.0 | 0.00 | 0.11 | 0.11 | 95 | 1012.6 |
| 20260506132024 | 60 | 157 | 0.0 | 2.0 | 0.00 | 0.11 | 0.11 | 95 | 1012.6 |
| 20260506131521 | 60 | 157 | 1.0 | 4.0 | 0.00 | 0.10 | 0.10 | 95 | 1012.6 |
| 20260506131017 | 60 | 157 | 2.0 | 4.0 | 0.00 | 0.10 | 0.10 | 95 | 1012.6 |
| 20260506130514 | 60 | 239 | 0.0 | 0.0 | 0.00 | 0.10 | 0.10 | 95 | 1012.6 |
| 20260506130012 | 59 | 239 | 0.0 | 2.0 | 0.00 | 0.10 | 0.10 | 95 | 1012.6 |
| 20260506125510 | 59 | 239 | 1.0 | 3.0 | 0.00 | 0.10 | 0.10 | 95 | 1012.6 |
| 20260506125008 | 59 | 239 | 0.0 | 3.0 | 0.00 | 0.09 | 0.09 | 95 | 1012.6 |
| 20260506124505 | 59 | 239 | 0.0 | 1.0 | 0.00 | 0.09 | 0.09 | 94 | 1012.3 |
| 20260506124003 | 59 | 239 | 0.0 | 2.0 | 0.00 | 0.08 | 0.08 | 93 | 1012.3 |
| 20260506123501 | 59 | 239 | 1.0 | 2.0 | 0.00 | 0.07 | 0.07 | 93 | 1012.3 |
| 20260506122958 | 59 | 201 | 1.0 | 2.0 | 0.00 | 0.06 | 0.06 | 93 | 1012.3 |
| 20260506122455 | 60 | 201 | 0.0 | 2.0 | 0.00 | 0.06 | 0.06 | 92 | 1012.3 |
| 20260506121953 | 60 | 201 | 0.0 | 2.0 | 0.00 | 0.04 | 0.04 | 90 | 1012.3 |
| 20260506121450 | 60 | 201 | 1.0 | 4.0 | 0.00 | 0.03 | 0.03 | 88 | 1012.3 |
| 20260506120947 | 61 | 182 | 1.0 | 3.0 | 0.00 | 0.02 | 0.02 | 86 | 1012.6 |
| 20260506120444 | 61 | 182 | 1.0 | 3.0 | 0.47 | 0.01 | 0.01 | 83 | 1012.3 |